Weather History for Lovelock, NV

Change the Weather History Date:

Saturday, December 1, 2012

  Actual Average Record
Temperature  
Mean Temperature 47 °F -  
Max Temperature 64 °F 48 °F 64 °F (2012)
Min Temperature 30 °F 18 °F 1 °F (1991)
Degree Days  
Heating Degree Days 18    
Moisture  
Dew Point 34 °F    
Average Humidity 60    
Maximum Humidity 96    
Minimum Humidity 35    
Precipitation  
Precipitation 0.00 in - - ()
Sea Level Pressure  
Sea Level Pressure 29.87 in    
Wind  
Wind Speed 10 mph (South)    
Max Wind Speed 21 mph    
Max Gust Speed 30 mph    
Visibility 10 miles    
Events      
Averages and records for this station are not official NWS values.
T = Trace of Precipitation, MM = Missing Value Source: NWS Daily Summary

Daily Weather History Graph

Daily Weather History Graph

Search for Another Location

Airport:

Trip Planner

Search our weather history database for the weather conditions in past years. The results will help you decide how hot, cold, wet, or windy it might be!

Date:

Astronomy

Dec. 01, 2012 Rise Set
Actual Time 6:57 AM PST 4:29 PM PST
Civil Twilight 6:27 AM PST 4:59 PM PST
Nautical Twilight 5:53 AM PST 5:33 PM PST
Astronomical Twilight 5:21 AM PST 6:05 PM PST
Moon 7:23 PM PST (12/1) 9:13 AM PST (12/1)
Length of Visible Light 10h 31m
Length of Day
9h 31m
Waning Gibbous, 91% of the Moon is Illuminated
Dec 1
Waning Gibbous
Dec 6
Last Quarter
Dec 13
New
Dec 19
First Quarter
Dec 28
Full

Hourly Weather History & Observations

Time (PST) Temp. Windchill Dew Point Humidity Pressure Visibility Wind Dir Wind Speed Gust Speed Precip Events Conditions
12:53 AM 30.9 °F 24.3 °F 30.0 °F 96% 29.92 in 10.0 mi East 6.9 mph - N/A   Clear
1:53 AM 33.1 °F 27.7 °F 32.0 °F 96% 29.92 in 10.0 mi SSE 5.8 mph - N/A   Clear
2:53 AM 30.0 °F 21.7 °F 28.9 °F 96% 29.93 in 10.0 mi South 9.2 mph - N/A   Clear
4:53 AM 32.0 °F 23.6 °F 28.9 °F 88% 29.92 in 10.0 mi South 10.4 mph - N/A   Clear
6:53 AM 34.0 °F 25.0 °F 28.0 °F 79% 29.94 in 10.0 mi SW 12.7 mph - N/A   Clear
7:53 AM 41.0 °F 36.4 °F 32.0 °F 70% 29.95 in 10.0 mi SSW 6.9 mph - N/A   Clear
8:53 AM 44.1 °F 41.5 °F 36.0 °F 73% 29.96 in 10.0 mi ENE 4.6 mph - N/A   Clear
9:53 AM 50.0 °F - 37.0 °F 61% 29.95 in 10.0 mi SSW 5.8 mph - N/A   Clear
11:53 AM 60.1 °F - 39.0 °F 46% 29.90 in 10.0 mi South 9.2 mph - N/A   Overcast
12:53 PM 61.0 °F - 37.9 °F 42% 29.88 in 10.0 mi SE 11.5 mph - N/A   Mostly Cloudy
1:53 PM 64.0 °F - 36.0 °F 35% 29.83 in 10.0 mi SSW 20.7 mph 29.9 mph 0.00 in   Clear
2:53 PM 63.0 °F - 36.0 °F 37% 29.83 in 10.0 mi SW 17.3 mph - N/A   Clear
3:53 PM 60.1 °F - 35.1 °F 39% 29.83 in 10.0 mi SW 15.0 mph - N/A   Partly Cloudy
4:53 PM 55.0 °F - 35.1 °F 47% 29.83 in 10.0 mi West 11.5 mph - N/A   Clear
5:53 PM 54.0 °F - 34.0 °F 47% 29.84 in 10.0 mi South 11.5 mph - N/A   Clear
6:53 PM 54.0 °F - 33.1 °F 45% 29.85 in 10.0 mi SSW 16.1 mph - N/A   Clear
7:53 PM 54.0 °F - 34.0 °F 47% 29.83 in 10.0 mi South 12.7 mph - N/A   Clear
8:53 PM 54.0 °F - 32.0 °F 43% 29.81 in 10.0 mi SSW 15.0 mph - N/A   Mostly Cloudy
9:53 PM 50.0 °F - 35.1 °F 57% 29.78 in 10.0 mi South 15.0 mph - N/A   Clear
10:53 PM 50.0 °F - 35.1 °F 57% 29.77 in 10.0 mi SSE 4.6 mph - N/A   Partly Cloudy
11:53 PM 50.0 °F - 36.0 °F 59% 29.74 in 10.0 mi SSE 9.2 mph - N/A   Overcast